Portada
METAR-TAF:

METAR-TAF

Aeroports :

Illa Lavan, Iran

latitud: 26-48-37N, longitud: 53-21-22E, altitud: 23 m

Observació

L'informe es va fer fa 48 minuts, a les 12:00 UTC
Vent 8 kt del Oest
Temperatura 42°C
Humitat 32%
Pressió 994 hPa
Visibilitat: 8000 m

METAR: OIBV 081200Z 28008KT 8000 NSC 42/22 Q0994

Hora: 17:18 (12:48 UTC)


TAF: manca

Observacions i pronòstics meteorològics de més de 4000 aeroports (METAR i TAF).

Les estacions disponibles són els punts grocs i vermells al mapa.

Posi el ratolí al punt desitjat per veure el nom de l'estació.

Feu clic per veure les observacions i els pronòstics meteorològics.

Per canviar el mapa: feu clic els botons verds amb una creu de color negre per apropar; al botó verd amb un guió per allunyar la imatge; o en les fletxes verdes per a mapes adjacents.


METAR-TAF: